Location: Dongjum
(53.2096°N, 5.5439°E)
Time: 14:27:02
(UTC+00:00)

Daily predictions for brighter satellites

Satellite Brightness Start Highest point End
(mag) Time Altitude Azimuth Time Altitude Azimuth Time Altitude Azimuth
STARLINK-1233 3.8 18:42:35 10° SW 18:45:26 33° SSE 18:48:19 10° E
Cosmos 1302 Rocket 4.1 18:40:33 10° NNW 18:45:51 71° ENE 18:51:07 10° SSE
STARLINK-1212 3.7 18:43:03 10° SW 18:45:54 33° SSE 18:48:46 10° E
STARLINK-1105 3.7 18:43:29 10° SW 18:46:20 33° SSE 18:49:13 10° E
STARLINK-1206 3.7 18:43:58 10° SW 18:46:49 33° SSE 18:49:40 10° E
STARLINK-1247 3.7 18:44:24 10° SW 18:47:15 33° SSE 18:50:06 10° E
FREGAT/IRIS 2.4 18:44:48 10° SSE 18:47:28 55° ENE 18:50:11 10° N
STARLINK-1227 3.7 18:44:49 10° SW 18:47:41 33° SSE 18:50:34 10° E
STARLINK-1218 3.7 18:45:18 10° SW 18:48:09 33° SSE 18:51:01 10° E
STARLINK-1103 3.7 18:44:17 10° W 18:48:25 72° SSW 18:52:33 10° ESE
Cosmos 304 Rocket 4.3 18:43:47 10° NNW 18:48:33 64° WSW 18:53:16 10° SSE
STARLINK-1226 3.7 18:45:43 10° SW 18:48:36 34° SSE 18:51:29 10° E
COSMO-SKYMED 1 4.3 18:44:39 10° N 18:48:42 39° WNW 18:52:44 10° SW
Cosmos 1709 Rocket 4.0 18:42:42 10° N 18:48:56 67° ENE 18:55:03 10° SSE
STARLINK-1254 3.7 18:46:09 10° SW 18:49:02 34° SSE 18:51:56 10° E
STARLINK-1215 3.7 18:46:38 10° SW 18:49:30 34° SSE 18:52:23 10° E
SeaSat 1 2.9 18:44:57 10° NNE 18:49:53 70° NW 18:54:47 10° SW
STARLINK-1231 3.7 18:47:04 10° SW 18:49:56 34° SSE 18:52:49 10° E
STARLINK-1232 3.6 18:47:57 10° SW 18:50:50 35° SSE 18:53:43 10° E
STARLINK-1217 3.6 18:48:24 10° SW 18:51:17 35° SSE 18:54:11 10° E
Cosmos 2084 3.8 18:47:03 10° SW 18:51:33 77° NW 18:56:03 10° NE
STARLINK-1208 3.6 18:48:49 10° SW 18:51:43 35° SSE 18:54:38 10° E
Cosmos 1953 3.9 18:49:33 10° SE 18:52:07 17° E 18:54:42 10° NE
STARLINK-1229 3.6 18:49:18 10° SW 18:52:11 35° SSE 18:55:05 10° E
STARLINK-1236 4.4 18:48:53 10° SSW 18:52:31 32° SSE 18:56:10 10° E
STARLINK-1271 3.6 18:49:44 10° SW 18:52:38 35° SSE 18:55:32 10° E
STARLINK-1270 3.6 18:50:12 10° SW 18:53:06 36° SSE 18:56:00 10° E
STARLINK-1101 3.8 18:49:16 10° W 18:53:23 70° SSW 18:57:31 10° ESE
STARLINK-1154 3.6 18:50:39 10° SW 18:53:32 36° SSE 18:56:27 10° E
Cosmos 2360 Rocket 4.4 18:49:24 10° W 18:54:01 25° NW 18:58:40 10° NNE
STARLINK-1197 3.6 18:51:32 10° SW 18:54:27 36° SSE 18:57:21 10° E
STARLINK-1189 3.6 18:51:59 10° SW 18:54:54 36° SSE 18:57:48 10° E
Cosmos 1269 Rocket 4.2 18:50:33 10° S 18:55:38 50° ESE 19:00:46 10° NE
STARLINK-1187 3.5 18:52:45 10° SW 18:55:42 40° SSE 18:58:41 10° E
STARLINK-1188 3.5 18:52:52 10° SW 18:55:47 37° SSE 18:58:42 10° E
STARLINK-1198 3.5 18:52:53 10° SW 18:55:48 37° SSE 18:58:42 10° E
MONITOR-E 3.7 18:53:22 10° SSE 18:55:59 67° ENE 18:58:38 10° N
STARLINK-1235 3.4 18:53:23 10° SW 18:56:24 43° SSE 18:59:25 10° E
CZ-4C R/B 3.6 18:51:15 10° W 18:56:35 42° NNW 19:02:58 10° NE
STARLINK-1199 3.5 18:54:47 10° SW 18:57:44 38° SSE 19:00:42 10° E
STARLINK-1191 3.5 18:55:14 10° SW 18:58:10 38° SSE 19:01:09 10° E
STARLINK-1102 3.8 18:54:14 10° W 18:58:22 67° SSW 19:02:19 11° ESE
STARLINK-1210 3.5 18:55:41 10° SW 18:58:38 38° SSE 19:01:36 10° E
STARLINK-1221 3.5 18:56:07 10° SW 18:59:05 39° SSE 19:02:02 10° E
STARLINK-1219 3.5 18:56:35 10° SW 18:59:32 39° SSE 19:02:29 10° E
ISS -3.5 18:56:20 10° W 18:59:39 60° S 19:02:41 12° ESE
STARLINK-1222 3.5 18:57:02 10° SW 18:59:59 39° SSE 19:02:54 10° E
Cosmos 2297 4.0 18:54:36 10° NW 19:00:16 74° WSW 19:05:57 10° SSE
STARLINK-1211 3.5 18:57:29 10° SW 19:00:25 39° SSE 19:03:20 10° E
STARLINK-1214 3.5 18:57:55 10° SW 19:00:52 39° SSE 19:03:46 11° E
STARLINK-1245 3.4 18:58:23 10° SW 19:01:20 39° SSE 19:04:10 11° E
STARLINK-1238 3.4 18:58:46 10° SW 19:01:45 40° SSE 19:04:37 11° E
STARLINK-1269 4.3 18:58:33 10° SW 19:02:17 36° SSE 19:06:02 10° E
BREEZE-M DEB (TANK) 4.4 18:53:17 10° W 19:02:18 61° S 19:05:20 12° ESE
STARLINK-1205 3.4 18:59:41 10° SW 19:02:39 40° SSE 19:05:27 11° E
Cosmos 2084 Rocket 3.6 18:58:13 10° NW 19:02:41 72° NE 19:06:58 11° ESE
STARLINK-1204 3.4 19:00:10 10° SW 19:03:07 40° SSE 19:05:54 11° E
STARLINK-1111 3.8 18:59:13 10° W 19:03:20 65° SSW 19:07:06 12° ESE
Cosmos 1455 Rocket 3.0 18:59:07 10° S 19:03:28 79° E 19:07:51 10° NNE
STARLINK-1200 4.2 19:03:18 10° SW 19:07:05 38° SSE 19:10:50 10° E
CZ-2C R/B 3.6 19:03:07 10° NE 19:07:23 25° E 19:11:35 10° SE
S3M 4.3 19:01:10 10° SSW 19:07:33 80° W 19:14:00 10° N
Cosmos 1626 Rocket 3.5 19:03:30 10° N 19:07:57 71° ENE 19:12:18 10° SSE
Cosmos 2237 Rocket 2.4 19:02:26 10° SW 19:08:04 77° WNW 19:13:46 10° NNE
STARLINK-1073 3.9 19:04:12 10° W 19:08:19 63° SSW 19:11:53 13° ESE
NOSS 2-1 (C) 3.8 19:07:34 10° WSW 19:10:58 58° NW 19:14:57 10° NE
Cosmos 1805 4.1 19:07:51 10° SSW 19:11:42 54° WNW 19:15:34 10° N
STARLINK-1192 4.1 19:07:59 10° SW 19:11:49 40° SSE 19:15:24 11° E
STARLINK-1121 3.9 19:09:10 10° W 19:13:16 60° SSW 19:16:39 14° ESE
Cosmos 292 Rocket 4.0 19:09:25 10° NNW 19:14:09 55° ENE 19:18:32 12° SE
NOSS 2-1 (D) 3.9 19:11:48 10° WSW 19:15:11 54° NW 19:19:10 10° NE
Cosmos 1602 Rocket 3.6 19:11:28 10° N 19:15:57 68° ENE 19:20:22 10° SSE
STARLINK-1244 4.0 19:12:51 10° SW 19:16:43 42° SSE 19:20:08 13° E
ARGOS 3.3 19:11:59 10° SSE 19:17:24 80° WSW 19:22:50 10° NNW
STARLINK-1106 3.9 19:14:08 10° W 19:18:13 58° SSW 19:21:25 16° SE
STARLINK-1138 4.0 19:17:24 10° SW 19:21:17 44° SSE 19:24:34 14° E
MOS 1 Rocket 4.2 19:17:08 10° NNE 19:21:51 34° E 19:26:42 10° SSE
STARLINK-1234 2.8 19:19:09 10° WSW 19:22:05 57° SSE 19:24:04 18° E
STARLINK-1112 4.0 19:19:09 10° W 19:23:12 55° SSW 19:26:14 17° SE
Cosmos 494 Rocket 4.1 19:18:50 10° SSW 19:24:00 79° WNW 19:29:14 10° NNE
USA 186 2.8 19:21:17 10° S 19:24:37 50° W 19:27:55 10° NNW
STARLINK-1143 3.9 19:22:15 10° SW 19:26:10 46° SSE 19:29:16 15° E
IRIDIUM 114 4.4 19:21:19 10° N 19:26:31 59° E 19:31:39 10° SSE
COSMOS 2455 4.1 19:21:55 10° NW 19:27:10 30° NNE 19:32:01 12° E
MetOp-A 4.1 19:22:43 10° SSE 19:28:04 77° ENE 19:33:27 10° NNW
STARLINK-1128 4.1 19:24:07 10° W 19:28:10 53° SSW 19:31:01 18° SE
CZ-2C R/B 3.5 19:24:54 10° S 19:29:51 60° WSW 19:34:38 10° NNW
Cosmos 1437 3.5 19:27:30 10° N 19:30:17 31° ENE 19:31:24 24° ESE
Cosmos 1544 Rocket 3.8 19:26:40 10° SSW 19:31:04 76° WNW 19:35:32 10° N
Cosmos 1470 2.6 19:29:10 10° S 19:33:02 77° E 19:36:57 10° NNE
STARLINK-1113 4.1 19:29:06 10° W 19:33:07 50° SSW 19:35:47 19° SE
STARLINK-1241 3.8 19:30:32 10° SW 19:34:27 50° SSE 19:37:13 18° E
Cosmos 1825 Rocket 3.9 19:30:41 10° N 19:34:58 45° ENE 19:37:53 19° SE
IRIDIUM 103 4.3 19:30:29 10° N 19:35:43 70° E 19:40:56 10° SSE
SPOT 3 Rocket 3.6 19:31:18 10° SSE 19:36:32 85° WSW 19:41:47 10° NNW
NOSS 3-4 (A) 4.2 19:30:36 10° NW 19:37:08 54° NNE 19:42:42 17° ESE
NOSS 3-4 (C) 4.2 19:30:42 10° NW 19:37:14 54° NNE 19:42:48 17° ESE
STARLINK-1119 4.2 19:34:05 10° W 19:38:05 48° SSW 19:40:34 21° SE
Cosmos 2369 Rocket 2.2 19:32:58 10° NNW 19:38:44 80° ENE 19:43:14 17° SE
STARLINK-1239 3.7 19:35:25 10° SW 19:39:22 52° SSE 19:41:56 20° E
SJ-6B 3.9 19:38:47 10° S 19:42:45 49° W 19:46:48 10° NNW
STARLINK-1114 4.3 19:39:06 10° W 19:43:05 45° SSW 19:45:24 22° SE
Aureole 2 Rocket 2.3 19:40:23 10° NNW 19:43:55 85° ENE 19:45:56 23° SSE
STARLINK-1240 3.7 19:40:07 10° SW 19:44:04 54° SSE 19:46:29 22° E
Cosmos 2263 4.2 19:39:07 10° NNW 19:44:46 69° NE 19:48:35 21° SE
Cosmos 1726 2.7 19:42:57 22° SE 19:44:48 36° E 19:48:17 10° NNE
Cosmos 1758 Rocket 3.5 19:40:26 10° N 19:44:49 64° ENE 19:47:53 19° SSE
Cosmos 1758 3.4 19:42:56 10° SSW 19:47:02 85° W 19:51:10 10° N
CZ-2C R/B 3.7 19:42:57 10° NNE 19:47:45 76° ESE 19:52:28 10° S
STARLINK-1130 (DARKSAT) 4.3 19:44:05 10° W 19:48:01 43° SSW 19:50:10 23° SSE
STARLINK-1216 3.6 19:44:49 10° WSW 19:48:48 57° SSE 19:51:02 24° E
Cosmos 1908 4.4 19:48:57 23° E 19:48:57 23° E 19:52:03 10° NE
ATLAS CENTAUR R/B 3.9 19:47:51 10° NW 19:50:48 18° N 19:53:36 10° NE
Cosmos 1953 Rocket 4.0 19:46:58 10° N 19:51:16 45° ENE 19:53:21 26° SE
STARLINK-1209 2.6 19:49:03 10° WSW 19:51:59 75° S 19:52:50 42° E
STARLINK-1084 4.4 19:49:03 10° W 19:52:58 41° SSW 19:54:56 24° SSE
STARLINK-1237 3.6 19:49:34 10° WSW 19:53:35 59° SSE 19:55:38 26° E
Cosmos 2184 Rocket 4.0 19:47:26 10° N 19:53:50 78° ENE 19:59:37 12° SSE
IRIDIUM 106 4.3 19:48:45 10° N 19:54:01 86° W 19:59:14 10° S
STARLINK-1228 2.5 19:51:15 10° WSW 19:54:08 76° SSE 19:54:50 46° E
Terra 3.4 19:53:53 18° E 19:55:22 20° NE 19:58:50 10° N
STARLINK-1098 4.5 19:54:03 10° W 19:57:56 39° SSW 19:59:43 25° SSE
STARLINK-1202 3.5 19:54:17 10° WSW 19:58:18 62° SSE 20:00:11 29° E
Spot 2 Rocket 3.7 19:55:41 24° SE 19:58:38 56° ENE 20:03:38 10° N
Cosmos 1943 Rocket 2.5 19:54:37 10° NW 20:00:05 61° WSW 20:04:35 15° SSE
Meteor 1-21 Rocket 4.4 19:54:49 10° NNW 20:00:24 72° W 20:05:54 10° S
Cosmos 1606 Rocket 3.9 19:59:07 27° SE 20:01:03 43° E 20:05:17 10° NNE
ERBS 3.2 19:59:17 10° W 20:02:35 47° N 20:04:36 20° ENE
SPOT 1/Viking Rocket 4.1 20:00:50 27° ESE 20:03:11 43° ENE 20:08:06 10° N
Cosmos 1943 3.7 20:01:04 14° SSE 20:05:16 35° ESE 20:10:23 10° NE
STARLINK-67 2.2 20:02:43 10° W 20:05:15 84° SW 20:05:15 84° SW
STARLINK-1246 3.5 20:01:27 10° WSW 20:05:31 66° SSE 20:07:11 33° E
SL-8 R/B 4.3 20:01:22 10° W 20:05:52 42° SSW 20:07:35 30° SE
Meteor 2-10 4.1 20:02:12 10° S 20:07:30 66° E 20:13:03 10° NNE
STARLINK-1201 2.8 20:04:48 10° WSW 20:08:04 76° S 20:08:41 54° E
Resurs 1-3 4.3 20:05:32 10° S 20:09:44 52° W 20:14:04 10° NNW
ATLAS 2AS CENTAUR R/B 3.0 20:02:14 10° NW 20:10:03 72° NE 20:14:21 27° ESE
STARLINK-1224 3.5 20:08:33 10° WSW 20:12:35 69° SSE 20:13:58 39° E
STARLINK-1203 3.4 20:09:54 10° WSW 20:13:52 71° SSE 20:15:07 41° E
Cosmos 1340 Rocket 4.3 20:15:29 23° ENE 20:15:29 23° ENE 20:17:49 10° NE
USA 234 3.2 20:08:22 10° ENE 20:14:51 61° SE 20:21:19 10° SW
Cosmos 2154 Rocket 4.0 20:08:31 10° N 20:14:55 74° ENE 20:18:59 24° SSE
H-2A R/B 4.2 20:12:26 10° SSW 20:16:46 25° W 20:21:03 10° NW
STARLINK-1225 3.4 20:13:07 10° WSW 20:17:11 71° SSE 20:18:23 43° E
DMSP B5D2-2 4.0 20:12:00 10° NNE 20:17:16 87° WNW 20:22:29 10° SSW
USA 245 4.1 20:15:17 30° SSE 20:17:52 71° ENE 20:23:53 10° NNW
Aureole 3 4.2 20:14:46 10° SSW 20:18:59 66° WNW 20:24:28 10° N
Cosmos 1328 3.7 20:15:04 10° N 20:19:06 83° E 20:20:25 41° SSE
Resurs 01 Rocket 2.1 20:16:28 18° S 20:19:38 58° W 20:24:01 10° NNW
Cosmos 921 Rocket 3.8 20:16:55 10° N 20:20:46 33° ENE 20:21:21 32° ENE
STARLINK-1233 2.7 20:17:54 10° W 20:21:01 82° S 20:21:01 82° S
STARLINK-1212 2.7 20:18:22 10° W 20:21:27 81° SSW 20:21:27 81° SSW
STARLINK-1230 3.4 20:17:52 10° WSW 20:21:56 73° SSE 20:22:57 48° E
STARLINK-1105 2.7 20:18:48 10° W 20:21:53 81° SSW 20:21:53 81° SSW
STARLINK-1206 2.8 20:19:18 10° W 20:22:19 79° SW 20:22:19 79° SW
SL-16 R/B 2.8 20:17:04 10° SW 20:22:40 58° NW 20:28:17 10° NNE
STARLINK-1247 2.8 20:19:44 10° W 20:22:44 78° SW 20:22:44 78° SW
STARLINK-1227 2.8 20:20:10 10° W 20:23:12 80° SW 20:23:12 80° SW
STARLINK-1218 2.8 20:20:39 10° W 20:23:36 77° SW 20:23:36 77° SW
Cosmos 2228 2.9 20:22:39 38° SSE 20:24:08 65° E 20:28:26 10° NNE
STARLINK-1226 2.8 20:21:05 10° W 20:24:03 77° SW 20:24:03 77° SW
STARLINK-1254 2.8 20:21:31 10° W 20:24:30 77° SW 20:24:30 77° SW
STARLINK-1215 2.9 20:22:00 10° W 20:24:54 74° WSW 20:24:54 74° WSW
STARLINK-1231 2.9 20:22:26 10° W 20:25:19 73° WSW 20:25:19 73° WSW
STARLINK-1232 2.9 20:23:20 10° W 20:26:12 72° WSW 20:26:12 72° WSW
STARLINK-1243 3.4 20:22:41 10° WSW 20:26:46 75° SSE 20:27:35 54° E
STARLINK-1217 2.9 20:23:48 10° W 20:26:38 71° WSW 20:26:38 71° WSW
STARLINK-1208 2.9 20:24:12 10° W 20:27:05 72° WSW 20:27:05 72° WSW
STARLINK-1229 3.0 20:24:41 10° W 20:27:29 69° WSW 20:27:29 69° WSW
Cosmos 1953 2.9 20:24:12 10° SSW 20:28:06 57° WNW 20:32:03 10° N
STARLINK-1271 3.0 20:25:08 10° W 20:27:56 68° WSW 20:27:56 68° WSW
STARLINK-1270 3.0 20:25:36 10° W 20:28:23 67° WSW 20:28:23 67° WSW
Iridium 4 Rocket 4.3 20:25:19 10° NNE 20:28:55 27° ENE 20:28:55 27° ENE
STARLINK-1154 3.0 20:26:03 10° W 20:28:48 66° WSW 20:28:48 66° WSW
STARLINK-1197 3.1 20:26:57 10° W 20:29:40 64° WSW 20:29:40 64° WSW
STARLINK-1189 3.1 20:27:24 10° W 20:30:07 63° WSW 20:30:07 63° WSW
STARLINK-1187 3.1 20:28:14 10° W 20:30:59 65° WSW 20:30:59 65° WSW
STARLINK-1198 3.2 20:28:18 10° W 20:30:58 61° WSW 20:30:58 61° WSW
STARLINK-1188 3.2 20:28:18 10° W 20:30:59 61° WSW 20:30:59 61° WSW
STARLINK-1236 3.4 20:27:27 10° WSW 20:31:32 77° SSE 20:32:12 60° E
STARLINK-1235 3.1 20:28:57 10° W 20:31:42 66° W 20:31:42 66° W
STARLINK-1199 3.2 20:30:14 10° W 20:32:54 60° WSW 20:32:54 60° WSW
STARLINK-1191 3.3 20:30:41 10° W 20:33:20 59° WSW 20:33:20 59° WSW
STARLINK-1210 3.3 20:31:09 10° W 20:33:46 58° WSW 20:33:46 58° WSW
STARLINK-1221 3.3 20:31:35 10° W 20:34:12 57° WSW 20:34:12 57° WSW
SL-8 Rocket 4.3 20:28:57 10° N 20:35:03 49° ENE 20:37:01 37° ESE
Nadezhda 1 Rocket 3.9 20:29:48 16° S 20:35:08 77° E 20:41:32 10° NNE
STARLINK-1219 3.3 20:32:03 10° W 20:34:39 57° WSW 20:34:39 57° WSW
STARLINK-1222 3.4 20:32:30 10° W 20:35:04 56° WSW 20:35:04 56° WSW
STARLINK-1211 3.4 20:32:57 10° W 20:35:30 55° W 20:35:30 55° W
ISS -2.0 20:33:18 10° W 20:35:39 24° SW 20:35:39 24° SW
STARLINK-1214 3.4 20:33:24 10° W 20:35:56 54° W 20:35:56 54° W
STARLINK-1245 3.5 20:33:53 10° W 20:36:20 52° W 20:36:20 52° W
STARLINK-1238 3.5 20:34:16 10° W 20:36:46 53° W 20:36:46 53° W
STARLINK-1205 3.6 20:35:11 10° W 20:37:37 50° W 20:37:37 50° W
STARLINK-1204 3.6 20:35:40 10° W 20:38:04 49° W 20:38:04 49° W
STARLINK-1269 3.4 20:37:21 10° WSW 20:41:27 81° SSE 20:41:43 75° ESE
Cosmos 1703 3.8 20:38:47 10° NNW 20:42:39 55° W 20:43:49 38° SSW
Cosmos 2058 Rocket 3.1 20:42:37 57° ESE 20:42:49 58° E 20:47:17 10° NNE
Cosmos 2366 rocket 4.4 20:36:57 10° N 20:42:50 45° ENE 20:44:18 38° ESE
MetOp-B 4.4 20:40:10 27° S 20:43:08 64° WSW 20:48:29 10° NNW
Cosmos 1603 3.5 20:38:43 10° SSW 20:44:20 76° ESE 20:49:58 10° NE
Cosmos 614 Rocket 4.4 20:44:49 42° E 20:44:49 42° E 20:49:18 10° NE
SPOT 5 2.7 20:44:25 54° E 20:44:47 55° ENE 20:49:03 10° N
Cosmos 2251 Rocket 3.7 20:39:54 10° SSW 20:45:16 78° WNW 20:50:42 10° NNE
Meteor 1-16 Rocket 4.2 20:40:21 10° SSW 20:45:42 76° WNW 20:51:14 10° NNE
STARLINK-1200 3.4 20:42:10 10° WSW 20:46:15 82° S 20:46:21 81° SE
CZ-4C R/B 3.9 20:41:01 10° WNW 20:46:38 35° N 20:53:15 10° ENE
CZ-2C R/B 3.0 20:42:58 10° N 20:48:06 60° WNW 20:53:10 10° SSW
IGS 5A 3.4 20:49:02 64° S 20:49:37 80° WSW 20:53:49 10° NNW
ERS-1 Rocket 2.9 20:48:38 54° SE 20:49:45 75° ENE 20:54:48 10° NNW
Cosmos 1980 Rocket 4.4 20:46:29 10° NNW 20:50:03 17° NNE 20:53:36 10° ENE
Landsat 7 3.8 20:49:39 48° S 20:50:58 78° WSW 20:55:46 10° NNW
STARLINK-1192 3.4 20:46:56 10° WSW 20:50:55 82° SSW 20:50:55 82° SSW
STARLINK-1244 3.5 20:51:51 10° W 20:55:40 76° WSW 20:55:40 76° WSW
Cosmos 1892 4.3 20:54:32 10° N 20:56:56 25° NE 20:56:56 25° NE
Cosmos 1656 Rocket 4.1 20:54:40 10° NW 21:00:15 57° WSW 21:02:03 40° S
STARLINK-1138 3.7 20:56:24 10° W 21:00:03 70° WSW 21:00:03 70° WSW
Cosmos 1076 Rocket 4.3 20:56:56 10° N 21:00:23 39° NE 21:00:23 39° NE
STARLINK-1143 3.8 21:01:18 10° W 21:04:46 62° WSW 21:04:46 62° WSW
Aureole 1 Rocket 4.2 21:01:50 27° S 21:06:12 65° ESE 21:12:29 10° NNE
CARTOSAT-1 3.4 21:07:30 88° WSW 21:07:30 88° WSW 21:11:51 10° NNW
Cosmos 1726 Rocket 4.2 21:10:43 35° SW 21:12:15 53° WNW 21:16:37 10° N
STARLINK-1241 4.2 21:09:31 10° W 21:12:34 50° W 21:12:34 50° W
COSMOS 2455 2.8 21:07:56 10° NW 21:14:01 78° NE 21:15:09 60° ESE
STARLINK-1239 4.4 21:14:31 10° W 21:17:22 44° W 21:17:22 44° W
In-Cosmos 22 Rocket 4.2 21:13:38 10° N 21:19:27 74° ENE 21:20:10 65° SE
Cosmos 1726 4.4 21:17:22 11° WSW 21:20:08 23° WNW 21:23:12 10° NNW
Cosmos 2341 Rocket 4.2 21:14:13 10° NNW 21:20:32 70° W 21:22:43 43° SSW
Cosmos 1461 3.1 21:16:48 10° NW 21:20:56 76° NW 21:20:56 76° NW
Cosmos 2369 Rocket 4.1 21:17:51 10° NW 21:22:08 22° WSW 21:25:03 15° SW
ASTEX 1 4.4 21:22:57 34° ENE 21:22:57 34° ENE 21:26:51 10° N
Cosmos 1300 4.2 21:28:54 32° NNE 21:28:54 32° NNE 21:31:05 10° NNE
Cosmos 1763 Rocket 4.1 21:22:20 10° NNW 21:27:22 43° NE 21:27:28 43° ENE
Cosmos 1656 4.4 21:22:35 10° NNW 21:27:59 41° NE 21:28:47 39° ENE
NOSS 3-4 (A) 4.0 21:21:34 10° NW 21:28:20 62° SW 21:30:09 49° S
NOSS 3-4 (C) 4.0 21:21:39 10° NW 21:28:26 62° SW 21:30:14 49° S
Cosmos 1825 4.3 21:26:46 10° N 21:28:25 20° NNE 21:28:25 20° NNE
Cosmos 1190 Rocket 4.2 21:31:48 61° ENE 21:31:48 61° ENE 21:36:20 10° NNE
ATLAS CENTAUR R/B 3.4 21:28:00 10° NNW 21:31:04 20° NNE 21:31:52 19° NNE
Terra 1.8 21:32:46 76° W 21:32:46 76° W 21:37:25 10° NNW
Meteor 2-12 Rocket 4.3 21:29:49 10° N 21:35:59 78° ENE 21:36:34 71° SE
Cosmos 1818 4.0 21:39:12 51° NE 21:39:12 51° NE 21:43:17 10° NE
NOSS 3-3 (A) 4.1 21:34:12 10° SW 21:40:15 76° NW 21:47:14 10° NE
NOSS 3-3 (C) 4.1 21:34:17 10° SW 21:40:21 76° NW 21:47:20 10° NE
Cosmos 2218 Rocket 4.0 21:41:29 10° NNW 21:47:37 70° W 21:48:36 60° SSW
Cosmos 1943 3.8 21:43:36 10° SW 21:49:09 54° NW 21:54:46 10° NNE
Cosmos 1340 Rocket 4.2 21:51:02 37° WNW 21:51:02 37° WNW 21:54:35 10° N
Cosmos 1140 Rocket 3.7 21:56:03 62° NNE 21:56:03 62° NNE 22:00:22 10° NNE
Cosmos 841 Rocket 4.3 21:52:04 10° NNW 21:56:50 43° NE 21:56:50 43° NE
USA 234 3.3 21:51:31 10° ENE 21:58:03 75° NNW 22:04:35 10° W
Cosmos 540 Rocket 4.3 21:55:26 10° NNW 21:59:57 40° NE 21:59:57 40° NE
ATLAS 2AS CENTAUR R/B 3.4 21:53:43 10° NW 22:00:43 41° WSW 22:01:48 39° SW
Cosmos 2181 Rocket 4.2 22:00:17 54° SW 22:01:35 68° WNW 22:07:48 10° N
Cosmos 468 Rocket 4.2 21:56:56 10° NNW 22:01:30 67° N 22:01:30 67° N
Cosmos 2344 4.5 21:54:10 10° NW 22:02:42 60° NNE 22:09:43 25° E
Cosmos 2058 4.3 21:58:48 10° NNW 22:01:32 36° NW 22:01:32 36° NW
Cosmos 407 Rocket 3.9 22:06:47 57° WNW 22:06:58 58° WNW 22:12:04 10° NNE
Iridium 4 Rocket 4.4 22:05:08 10° NNW 22:08:42 36° WNW 22:08:42 36° WNW
Cosmos 1697 Rocket 3.3 22:04:41 10° NNW 22:10:11 47° NE 22:10:12 47° NE
SL-16 R/B 4.4 22:08:18 10° NNW 22:12:19 19° NNE 22:15:22 13° ENE
Mayak 0.5 22:13:22 10° NNE 22:15:32 30° N 22:15:32 30° N
ALOS 2 4.1 22:23:54 32° NNE 22:23:54 32° NNE 22:26:32 10° N
Cosmos 2322 Rocket 4.4 22:22:35 10° NNW 22:26:40 20° NNE 22:29:38 14° ENE
Cosmos 1980 Rocket 3.0 22:30:14 10° NNW 22:35:28 43° NE 22:35:28 43° NE
CZ-4C R/B 3.3 22:29:58 10° NW 22:36:30 55° NNE 22:38:44 42° E
Nadezhda 3 Rocket 4.0 22:38:52 78° NNE 22:38:52 78° NNE 22:44:45 10° NNE
RESURS DK-1 4.4 22:40:21 10° NNW 22:42:18 26° NNW 22:42:18 26° NNW
Cosmos 2278 4.2 22:40:48 10° NNW 22:45:45 54° NNE 22:45:45 54° NNE
COSMOS 2406 4.4 22:56:09 33° NE 22:56:09 33° NE 22:59:24 10° NE
Meteor 2-10 Rocket 4.3 22:58:26 49° NNW 22:58:26 49° NNW 23:02:28 10° N
Cosmos 2082 Rocket 4.1 23:00:52 18° ENE 23:00:52 18° ENE 23:02:49 10° NE
COSMOS 2455 4.4 22:54:30 10° NW 22:58:18 25° W 22:58:18 25° W
ATLAS CENTAUR R/B 3.9 23:06:53 10° NW 23:08:02 18° NW 23:08:02 18° NW
Terra 4.3 23:11:38 12° WNW 23:11:38 12° WNW 23:13:15 10° WNW
Meteor 2-3 Rocket 4.3 23:09:33 10° NNW 23:14:10 53° NW 23:14:10 53° NW
ATLAS 5 CENTAUR R/B 3.5 23:20:05 28° NE 23:20:05 28° NE 23:22:37 10° NE
Cosmos 1833 Rocket 3.8 23:28:31 36° NE 23:28:31 36° NE 23:31:55 10° NE
Cosmos 1605 Rocket 4.3 23:24:54 10° NNW 23:30:02 61° NW 23:30:02 61° NW
Cosmos 2173 Rocket 4.4 23:29:43 10° N 23:35:07 53° NE 23:35:07 53° NE
USA 234 3.5 23:34:23 10° E 23:40:52 66° N 23:47:20 10° WNW
Cosmos 2061 Rocket 4.5 23:46:04 10° N 23:51:53 53° ENE 23:51:53 53° ENE
Mayak 1.5 23:50:23 10° NNW 23:52:06 14° NW 23:52:06 14° NW
SL-16 R/B 3.7 23:52:44 32° E 23:54:07 36° ENE 23:59:42 10° N
Cosmos 1697 Rocket 4.1 23:48:51 10° NW 23:51:56 29° WNW 23:51:56 29° WNW
